TimeCDT,TemperatureF,Dew PointF,Humidity,Sea Level PressureIn,VisibilityMPH,Wind Direction,Wind SpeedMPH,Gust SpeedMPH,PrecipitationIn,Events,Conditions,WindDirDegrees,DateUTC
12:15 AM,42.8,35.6,76,30.37,10.0,Calm,Calm,-,N/A,,Clear,0,2013-09-17 05:15:00
12:35 AM,42.8,35.6,76,30.37,10.0,SSE,3.5,-,N/A,,Clear,150,2013-09-17 05:35:00
12:55 AM,42.8,37.4,81,30.37,10.0,SE,3.5,-,N/A,,Clear,130,2013-09-17 05:55:00
1:15 AM,42.8,37.4,81,30.37,10.0,Calm,Calm,-,N/A,,Clear,0,2013-09-17 06:15:00
1:35 AM,42.8,39.2,87,30.37,10.0,South,4.6,-,N/A,,Clear,170,2013-09-17 06:35:00
1:55 AM,42.8,39.2,87,30.37,10.0,SSE,3.5,-,N/A,,Clear,160,2013-09-17 06:55:00
2:15 AM,42.8,39.2,87,30.37,10.0,SSE,4.6,-,N/A,,Clear,150,2013-09-17 07:15:00
2:35 AM,44.6,41.0,87,30.37,10.0,South,4.6,-,N/A,,Clear,170,2013-09-17 07:35:00
2:55 AM,46.4,41.0,81,30.36,10.0,SSE,4.6,-,N/A,,Clear,160,2013-09-17 07:55:00
3:15 AM,46.4,42.8,87,30.36,10.0,SSE,4.6,-,N/A,,Clear,160,2013-09-17 08:15:00
3:35 AM,46.4,42.8,87,30.36,10.0,South,3.5,-,N/A,,Clear,170,2013-09-17 08:35:00
3:55 AM,44.6,41.0,87,30.36,10.0,SSE,3.5,-,N/A,,Clear,160,2013-09-17 08:55:00
4:15 AM,44.6,42.8,93,30.35,10.0,SSE,3.5,-,N/A,,Clear,160,2013-09-17 09:15:00
4:35 AM,46.4,42.8,87,30.35,10.0,Calm,Calm,-,N/A,,Clear,0,2013-09-17 09:35:00
4:55 AM,44.6,41.0,87,30.35,10.0,South,3.5,-,N/A,,Clear,190,2013-09-17 09:55:00
5:15 AM,44.6,41.0,87,30.35,10.0,SSW,4.6,-,N/A,,Clear,200,2013-09-17 10:15:00
5:35 AM,44.6,41.0,87,30.36,10.0,Calm,Calm,-,N/A,,Partly Cloudy,0,2013-09-17 10:35:00
5:55 AM,44.6,42.8,93,30.36,10.0,Calm,Calm,-,N/A,,Scattered Clouds,0,2013-09-17 10:55:00
6:15 AM,44.6,42.8,93,30.36,10.0,Calm,Calm,-,N/A,,Mostly Cloudy,0,2013-09-17 11:15:00
6:35 AM,44.6,42.8,93,30.36,10.0,Calm,Calm,-,N/A,,Mostly Cloudy,0,2013-09-17 11:35:00
6:55 AM,44.6,42.8,93,30.37,10.0,Calm,Calm,-,N/A,,Overcast,0,2013-09-17 11:55:00
7:15 AM,46.4,42.8,87,30.36,10.0,Calm,Calm,-,N/A,,Overcast,0,2013-09-17 12:15:00
7:35 AM,48.2,44.6,87,30.36,10.0,Calm,Calm,-,N/A,,Overcast,0,2013-09-17 12:35:00
7:55 AM,50.0,46.4,87,30.37,10.0,Calm,Calm,-,N/A,,Overcast,0,2013-09-17 12:55:00
8:15 AM,51.8,46.4,82,30.37,10.0,Calm,Calm,-,N/A,,Overcast,0,2013-09-17 13:15:00
8:35 AM,51.8,46.4,82,30.37,10.0,Calm,Calm,-,N/A,,Overcast,0,2013-09-17 13:35:00
8:55 AM,53.6,46.4,77,30.37,10.0,Calm,Calm,-,N/A,,Mostly Cloudy,0,2013-09-17 13:55:00
9:15 AM,55.4,48.2,77,30.36,10.0,SSW,3.5,-,N/A,,Mostly Cloudy,200,2013-09-17 14:15:00
9:35 AM,57.2,50.0,77,30.36,10.0,SSE,5.8,-,N/A,,Mostly Cloudy,160,2013-09-17 14:35:00
9:55 AM,57.2,50.0,77,30.35,10.0,South,9.2,-,N/A,,Partly Cloudy,180,2013-09-17 14:55:00
10:15 AM,59.0,51.8,77,30.35,10.0,South,11.5,-,N/A,,Mostly Cloudy,190,2013-09-17 15:15:00
10:35 AM,60.8,51.8,72,30.34,10.0,South,13.8,-,N/A,,Overcast,180,2013-09-17 15:35:00
10:55 AM,60.8,51.8,72,30.34,10.0,SSE,10.4,-,N/A,,Overcast,160,2013-09-17 15:55:00
11:15 AM,60.8,51.8,72,30.34,10.0,South,10.4,-,N/A,,Overcast,170,2013-09-17 16:15:00
11:35 AM,60.8,51.8,72,30.33,10.0,South,11.5,17.3,N/A,,Mostly Cloudy,170,2013-09-17 16:35:00
11:55 AM,60.8,50.0,68,30.33,10.0,SSE,11.5,16.1,N/A,,Overcast,160,2013-09-17 16:55:00
12:15 PM,60.8,51.8,72,30.32,10.0,SSE,9.2,-,N/A,,Overcast,160,2013-09-17 17:15:00
12:35 PM,62.6,51.8,68,30.31,10.0,SSE,11.5,-,N/A,,Mostly Cloudy,150,2013-09-17 17:35:00
12:55 PM,60.8,51.8,72,30.30,10.0,SSE,12.7,-,N/A,,Mostly Cloudy,160,2013-09-17 17:55:00
1:15 PM,62.6,51.8,68,30.30,10.0,SSE,12.7,-,N/A,,Mostly Cloudy,160,2013-09-17 18:15:00
1:35 PM,62.6,51.8,68,30.29,10.0,SSE,15.0,19.6,N/A,,Mostly Cloudy,150,2013-09-17 18:35:00
1:55 PM,62.6,51.8,68,30.28,10.0,South,15.0,-,N/A,,Mostly Cloudy,190,2013-09-17 18:55:00
2:15 PM,60.8,51.8,72,30.27,10.0,South,12.7,17.3,N/A,,Mostly Cloudy,180,2013-09-17 19:15:00
2:35 PM,62.6,51.8,68,30.27,10.0,SE,10.4,17.3,N/A,,Mostly Cloudy,140,2013-09-17 19:35:00
2:55 PM,60.8,51.8,72,30.26,10.0,SSE,12.7,-,N/A,,Mostly Cloudy,160,2013-09-17 19:55:00
3:15 PM,60.8,51.8,72,30.25,10.0,SSE,12.7,20.7,N/A,,Mostly Cloudy,160,2013-09-17 20:15:00
3:35 PM,60.8,51.8,72,30.24,10.0,SSE,13.8,19.6,N/A,,Scattered Clouds,160,2013-09-17 20:35:00
3:55 PM,60.8,51.8,72,30.23,10.0,SSE,12.7,20.7,N/A,,Mostly Cloudy,150,2013-09-17 20:55:00
4:15 PM,60.8,51.8,72,30.23,10.0,SSE,15.0,20.7,N/A,,Mostly Cloudy,160,2013-09-17 21:15:00
4:35 PM,60.8,51.8,72,30.22,10.0,SSE,13.8,18.4,N/A,,Mostly Cloudy,160,2013-09-17 21:35:00
4:55 PM,59.0,51.8,77,30.22,10.0,SSE,10.4,16.1,N/A,,Mostly Cloudy,160,2013-09-17 21:55:00
5:15 PM,59.0,51.8,77,30.21,10.0,SSE,15.0,18.4,N/A,,Scattered Clouds,150,2013-09-17 22:15:00
5:35 PM,59.0,51.8,77,30.20,10.0,SSE,15.0,18.4,N/A,,Scattered Clouds,160,2013-09-17 22:35:00
5:55 PM,57.2,50.0,77,30.20,10.0,South,10.4,17.3,N/A,,Partly Cloudy,170,2013-09-17 22:55:00
6:15 PM,57.2,50.0,77,30.20,10.0,South,8.1,-,N/A,,Scattered Clouds,170,2013-09-17 23:15:00
6:35 PM,57.2,50.0,77,30.19,10.0,South,8.1,-,N/A,,Scattered Clouds,170,2013-09-17 23:35:00
6:55 PM,55.4,48.2,77,30.18,10.0,South,6.9,-,N/A,,Clear,170,2013-09-17 23:55:00
7:15 PM,55.4,48.2,77,30.18,10.0,South,8.1,-,N/A,,Clear,170,2013-09-18 00:15:00
7:35 PM,55.4,48.2,77,30.17,10.0,SSE,9.2,-,N/A,,Clear,160,2013-09-18 00:35:00
7:55 PM,55.4,48.2,77,30.18,10.0,South,9.2,-,N/A,,Clear,170,2013-09-18 00:55:00
8:15 PM,55.4,48.2,77,30.18,10.0,South,8.1,-,N/A,,Clear,180,2013-09-18 01:15:00
8:35 PM,55.4,48.2,77,30.18,10.0,South,5.8,-,N/A,,Clear,170,2013-09-18 01:35:00
8:55 PM,55.4,48.2,77,30.17,10.0,South,5.8,-,N/A,,Clear,170,2013-09-18 01:55:00
9:15 PM,55.4,48.2,77,30.16,10.0,South,8.1,-,N/A,,Clear,170,2013-09-18 02:15:00
9:35 PM,55.4,48.2,77,30.16,10.0,South,8.1,-,N/A,,Clear,180,2013-09-18 02:35:00
9:55 PM,55.4,48.2,77,30.16,10.0,SSE,8.1,-,N/A,,Clear,160,2013-09-18 02:55:00
10:15 PM,55.4,48.2,77,30.16,10.0,South,8.1,-,N/A,,Clear,170,2013-09-18 03:15:00
10:35 PM,55.4,48.2,77,30.15,10.0,South,5.8,-,N/A,,Clear,180,2013-09-18 03:35:00
10:55 PM,55.4,48.2,77,30.15,10.0,South,6.9,-,N/A,,Clear,170,2013-09-18 03:55:00
11:15 PM,55.4,50.0,82,30.14,10.0,South,6.9,-,N/A,,Clear,180,2013-09-18 04:15:00
11:35 PM,55.4,50.0,82,30.14,10.0,South,6.9,-,N/A,,Clear,180,2013-09-18 04:35:00
11:55 PM,55.4,50.0,82,30.13,10.0,South,6.9,-,N/A,,Clear,180,2013-09-18 04:55:00